Notices

What's New in latest Release from April 7th, 2021:

- Updated Glossary, including Speed of Maximum Gust, and Total Hourly Precipitation

- Updated national and regional climate services offices contacts and prices information

- Addition of station inventory lists for 1981-2010, 1971-2000, and 1961-1990 Normals.

If you haven't already, please take our survey and provide feedback about our website: https://eccc.sondage-survey.ca/f/LanguageSelection.aspx?s=442ca660-fcf1-47c0-95a9-59707d6fd709

Hourly Data Report for October 15, 2019

PINAWA
MANITOBA
Current Station Operator: ECCC - MSC

50°10'38.020" N
96°03'53.000" W
268.00 m
503B1ER
71448
WEA

Download Data

Hourly Data (October 2019)
Hourly Data Report for October 15, 2019
TIME
LST
Temp Definition
°C
Dew Point Definition
°C
Rel Hum Definition
%
Precip. Amount Definition
mm

Wind Dir Definition
10's deg

Wind Spd Definition
km/h
Visibility Definition
km
Stn Press Definition
kPa
Hmdx Definition


Wind Chill Definition


Weather Definition


00:00 1.5 LegendMM LegendMM LegendMM 11 2   98.11     LegendNANA
01:00 1.5 LegendMM LegendMM LegendMM 8 2   98.12     LegendNANA
02:00 1.3 LegendMM LegendMM LegendMM 10 1   98.11     LegendNANA
03:00 1.2 LegendMM LegendMM LegendMM 2 2   98.11     LegendNANA
04:00 1.3 LegendMM LegendMM LegendMM 35 2   98.11     LegendNANA
05:00 1.4 LegendMM LegendMM LegendMM 10 1   98.14     LegendNANA
06:00 2.4 LegendMM LegendMM LegendMM 34 3   98.19     LegendNANA
07:00 2.4 LegendMM LegendMM LegendMM 34 4   98.23     LegendNANA
08:00 2.4 LegendMM LegendMM LegendMM 33 6   98.29     LegendNANA
09:00 2.7 LegendMM LegendMM LegendMM 31 7   98.34     LegendNANA
10:00 3.6 LegendMM LegendMM LegendMM 34 9   98.40     LegendNANA
11:00 4.2 LegendMM LegendMM LegendMM 34 8   98.44     LegendNANA
12:00 4.3 LegendMM LegendMM LegendMM 32 11   98.48     LegendNANA
13:00 4.4 LegendMM LegendMM LegendMM 32 15   98.48     LegendNANA
14:00 4.5 LegendMM LegendMM LegendMM 31 11   98.52     LegendNANA
15:00 4.6 LegendMM LegendMM LegendMM 31 16   98.56     LegendNANA
16:00 4.3 LegendMM LegendMM LegendMM 32 16   98.60     LegendNANA
17:00 3.9 LegendMM LegendMM LegendMM 31 17   98.65     LegendNANA
18:00 3.8 LegendMM LegendMM LegendMM 31 13   98.70     LegendNANA
19:00 3.7 LegendMM LegendMM LegendMM 31 13   98.75     LegendNANA
20:00 3.6 LegendMM LegendMM LegendMM 32 9   98.73     LegendNANA
21:00 3.4 LegendMM LegendMM LegendMM 32 9   98.77     LegendNANA
22:00 3.2 LegendMM LegendMM LegendMM 31 10   98.81     LegendNANA
23:00 3.0 LegendMM LegendMM LegendMM 32 8   98.79     LegendNANA

Notes on Data Quality.

Legend

  • E = Estimated
  • M = Missing
  • NA = Not Available*
  • [empty] = Indicates an unobserved value
Date modified: